Pardubice, Czech Republic

6:28 AM CEST on May 25, 2017 (GMT +0200)
Pardubice

Weather History for LKPD - March, 2013

Change the Weather History Date:

Tuesday, March 26, 2013

  Actual Average Record
Temperature  
Mean Temperature 28 °F -  
Max Temperature 32 °F - - ()
Min Temperature 23 °F - - ()
Degree Days  
Heating Degree Days 38    
Moisture  
Dew Point 9 °F    
Average Humidity 47    
Maximum Humidity 59    
Minimum Humidity 32    
Precipitation  
Precipitation 0.00 in - - ()
Sea Level Pressure  
Sea Level Pressure 29.84 in    
Wind  
Wind Speed 7 mph ()    
Max Wind Speed 13 mph    
Max Gust Speed -    
T = Trace of Precipitation, MM = Missing Value Source: Averaged Metar Reports

Daily Weather History Graph

Daily Weather History Graph

Search for Another Location

Airport or City:

Trip Planner

Search our weather history database for the weather conditions in past years. The results will help you decide how hot, cold, wet, or windy it might be!

Date:

Astronomy

Mar. 26, 2013 Rise Set
Actual Time 5:46 AM CET 6:19 PM CET
Civil Twilight 5:14 AM CET 6:52 PM CET
Nautical Twilight 4:35 AM CET 7:30 PM CET
Astronomical Twilight 3:55 AM CET 8:11 PM CET
Moon 5:36 PM CET (3/26) 4:57 AM CET (3/26)
Length of Visible Light 13h 37m
Length of Day
12h 32m
Waxing Gibbous, 99% of the Moon is Illuminated
Mar 26
Waxing Gibbous
Mar 27
Full
Apr 3
Last Quarter
Apr 10
New
Apr 18
First Quarter

Hourly Weather History & Observations

Time (CET) Temp. Windchill Dew Point Humidity Pressure Visibility Wind Dir Wind Speed Gust Speed Precip Events Conditions
12:00 AM 26.6 °F 20.0 °F 12.2 °F 55% 29.89 in - ENE 5.8 mph - N/A   Clear
1:00 AM 26.6 °F 19.1 °F 8.6 °F 47% 29.86 in - ENE 6.9 mph - N/A   Clear
2:00 AM 24.8 °F 16.9 °F 10.4 °F 54% 29.86 in - NE 6.9 mph - N/A   Clear
3:00 AM 24.8 °F 16.1 °F 10.4 °F 54% 29.83 in - NE 8.1 mph - N/A   Clear
4:00 AM 24.8 °F 16.9 °F 10.4 °F 54% 29.83 in - NE 6.9 mph - N/A   Clear
5:00 AM 23.0 °F 15.8 °F 10.4 °F 59% 29.83 in - NE 5.8 mph - N/A   Clear
6:00 AM 24.8 °F 17.9 °F 10.4 °F 54% 29.83 in - NE 5.8 mph - N/A   Clear
7:00 AM 24.8 °F 17.9 °F 8.6 °F 50% 29.83 in - NE 5.8 mph - N/A   Clear
8:00 AM 24.8 °F 16.9 °F 8.6 °F 50% 29.83 in - NE 6.9 mph - N/A   Clear
9:00 AM 26.6 °F 17.5 °F 8.6 °F 47% 29.83 in - ENE 9.2 mph - N/A   Clear
10:00 AM 26.6 °F 18.2 °F 8.6 °F 47% 29.83 in - NE 8.1 mph - N/A   Clear
11:00 AM 28.4 °F 18.5 °F 6.8 °F 40% 29.83 in - ENE 11.5 mph - N/A   Clear
12:00 PM 30.2 °F 21.3 °F 5.0 °F 34% 29.83 in - NE 10.4 mph - N/A   Clear
1:00 PM 32.0 °F 23.6 °F 5.0 °F 32% 29.83 in - ENE 10.4 mph - N/A   Clear
2:00 PM 30.2 °F 20.2 °F 8.6 °F 40% 29.83 in - NE 12.7 mph - N/A   Clear
3:00 PM 30.2 °F 20.8 °F 6.8 °F 37% 29.83 in - NE 11.5 mph - N/A   Clear
4:00 PM 30.2 °F 20.8 °F 8.6 °F 40% 29.83 in - NE 11.5 mph - N/A   Clear
5:00 PM 28.4 °F 19.1 °F 10.4 °F 47% 29.83 in - NE 10.4 mph - N/A   Clear
6:00 PM 28.4 °F 19.1 °F 10.4 °F 47% 29.83 in - ENE 10.4 mph - N/A   Clear
7:00 PM 28.4 °F 19.7 °F 10.4 °F 47% 29.86 in - ENE 9.2 mph - N/A   Clear
8:00 PM 28.4 °F 19.7 °F 10.4 °F 47% 29.86 in - ENE 9.2 mph - N/A   Clear
9:00 PM 28.4 °F 20.4 °F 10.4 °F 47% 29.86 in - NE 8.1 mph - N/A   Clear
10:00 PM 28.4 °F 21.2 °F 10.4 °F 47% 29.86 in - NE 6.9 mph - N/A   Clear
11:00 PM 26.6 °F 19.1 °F 10.4 °F 51% 29.86 in - NE 6.9 mph - N/A   Clear